Location: Unspecified
(50.0830°N, 0.0000°E)
Time: 22:01:30
(UTC+00:00)

Envisat - Pass Details

Date: 21 November 2019
Orbit: 764 x 766 km, 98.1° (Epoch: 14 December)

Event Time Altitude Azimuth Distance (km) Brightness Sun altitude
Rises 19:23:10 0° 214° (SW) 3,223 6.6 -30.7°
Reaches altitude 10° 19:26:26 10° 237° (WSW) 2,303 6.0 -31.2°
Maximum altitude 19:29:24 15° 273° (W) 1,952 5.9 -31.7°
Drops below altitude 10° 19:32:23 10° 309° (NW) 2,313 6.1 -32.2°
Sets 19:35:42 0° 332° (NNW) 3,245 6.7 -32.7°
